Orbital Elements at Epoch 2459000.5 (2020-May-31.0) TDB
Reference: JPL 9 (heliocentric ecliptic J2000)
Element | Value | Uncertainty (1-sigma) | Units |
e | .1465582978249606 | 5.3751e-08 | |
a | 2.444191008238039 | 1.7345e-08 | au |
q | 2.085974534511597 | 1.3606e-07 | au |
i | 1.635041593257829 | 5.2258e-06 | deg |
node | 275.6027654836989 | 0.00036862 | deg |
peri | 154.9089498836392 | 0.00037147 | deg |
M | 210.6548402203519 | 4.7729e-05 | deg |
tp | 2459579.514968432091 (2021-Dec-31.01496843) | 0.00018801 | TDB |
period | 1395.729121339482 3.82 | 1.4857e-05 4.068e-08 | d yr |
n | .2579297046224183 | 2.7455e-09 | deg/d |
Q | 2.80240748196448 | 1.9887e-08 | au |
|
| | Orbit Determination Parameters
Additional Information
|